Location: Владивосток
(43.1151°N, 131.8856°E)
Time: 14:39:10
(UTC+10:00)

AIST 2D - Visible Passes

Search period start: 26 June 2022 00:00
Search period end: 06 July 2022 00:00
Orbit: 433 x 449 km, 97.1° (Epoch: 25 June)

Date Brightness Start Highest point End Pass type
(mag) Time Alt. Az. Time Alt. Az. Time Alt. Az.
26 Jun ? 23:00:41 10° N 23:03:59 66° WNW 23:05:37 27° SSW visible
27 Jun ? 22:23:14 10° NNE 22:26:18 34° E 22:27:37 24° SE visible
27 Jun ? 23:56:59 10° NW 23:58:36 13° WNW 00:00:13 10° W visible
28 Jun ? 21:47:11 10° ENE 21:48:25 12° E 21:49:36 10° ESE visible
28 Jun ? 23:18:06 10° N 23:21:12 36° WNW 23:23:03 19° SW visible
29 Jun ? 22:40:17 10° NNE 22:43:35 62° E 22:45:01 30° S visible
30 Jun ? 22:03:18 10° NE 22:05:45 19° E 22:06:58 16° ESE visible
30 Jun ? 23:35:39 10° NNW 23:38:18 22° WNW 23:40:26 13° WSW visible
01 Jul ? 22:57:26 10° N 23:00:45 73° WNW 23:02:21 28° SSW visible
02 Jul ? 22:19:58 10° NNE 22:22:59 31° E 22:24:16 23° SE visible
02 Jul ? 23:53:28 10° NNW 23:55:19 14° WNW 23:57:10 10° W visible
03 Jul ? 21:44:12 10° ENE 21:45:00 11° E 21:45:48 10° ESE visible
03 Jul ? 23:14:39 10° N 23:17:49 40° WNW 23:19:36 21° SW visible
04 Jul ? 22:36:49 10° NNE 22:40:06 55° E 22:41:29 30° SSE visible
05 Jul ? 21:59:51 10° NE 22:02:10 17° E 22:03:20 15° ESE visible
05 Jul ? 23:32:00 10° NNW 23:34:46 24° WNW 23:36:47 14° WSW visible
